Time,TemperatureF,DewpointF,PressureIn,WindDirection,WindDirectionDegrees,WindSpeedMPH,WindSpeedGustMPH,Humidity,HourlyPrecipIn,Conditions,Clouds,dailyrainin,SoftwareType,DateUTC
2013-04-18 00:01:00,68.9,63.9,30.72,North,0,0.0,0.0,84,0.00,,,0.00,WUHU216HW,2013-04-18 04:01:00,
2013-04-18 00:02:00,68.9,63.9,30.72,North,0,0.0,0.0,84,0.00,,,0.00,WUHU216HW,2013-04-18 04:02:00,
2013-04-18 00:07:00,68.8,63.7,30.72,North,0,0.0,0.0,84,0.00,,,0.00,WUHU216HW,2013-04-18 04:07:00,
2013-04-18 00:12:00,68.8,63.7,30.72,North,0,0.0,0.0,84,0.00,,,0.00,WUHU216HW,2013-04-18 04:12:00,
2013-04-18 00:17:00,68.8,63.7,30.73,North,0,0.0,0.0,84,0.00,,,0.00,WUHU216HW,2013-04-18 04:17:00,
2013-04-18 00:22:00,68.6,63.5,30.72,North,0,0.0,0.0,84,0.00,,,0.00,WUHU216HW,2013-04-18 04:22:00,
2013-04-18 00:27:00,68.6,63.5,30.72,North,0,0.0,0.0,84,0.00,,,0.00,WUHU216HW,2013-04-18 04:27:00,
2013-04-18 00:32:00,68.4,63.4,30.72,North,0,0.0,0.0,84,0.00,,,0.00,WUHU216HW,2013-04-18 04:32:00,
2013-04-18 00:37:00,68.2,63.2,30.72,North,0,0.0,0.0,84,0.00,,,0.00,WUHU216HW,2013-04-18 04:37:00,
2013-04-18 00:42:00,68.0,63.0,30.72,North,0,0.0,0.0,84,0.00,,,0.00,WUHU216HW,2013-04-18 04:42:00,
2013-04-18 00:47:00,67.9,62.8,30.72,North,0,0.0,0.0,84,0.00,,,0.00,WUHU216HW,2013-04-18 04:47:00,
2013-04-18 00:52:00,67.7,62.6,30.71,North,0,0.0,0.0,84,0.00,,,0.00,WUHU216HW,2013-04-18 04:52:00,
2013-04-18 00:57:00,67.7,62.6,30.71,North,0,0.0,0.0,84,0.00,,,0.00,WUHU216HW,2013-04-18 04:57:00,
2013-04-18 01:02:00,67.5,62.5,30.71,North,0,0.0,0.0,84,0.00,,,0.00,WUHU216HW,2013-04-18 05:02:00,
2013-04-18 01:07:00,67.3,62.3,30.71,North,0,0.0,0.0,84,0.00,,,0.00,WUHU216HW,2013-04-18 05:07:00,
2013-04-18 01:12:00,67.3,62.3,30.71,North,0,0.0,0.0,84,0.00,,,0.00,WUHU216HW,2013-04-18 05:12:00,
2013-04-18 01:17:00,67.3,62.3,30.71,North,0,0.0,0.0,84,0.00,,,0.00,WUHU216HW,2013-04-18 05:17:00,
2013-04-18 01:22:00,67.3,62.3,30.70,North,0,0.0,0.0,84,0.00,,,0.00,WUHU216HW,2013-04-18 05:22:00,
2013-04-18 01:27:00,67.3,62.3,30.70,North,0,0.0,0.0,84,0.00,,,0.00,WUHU216HW,2013-04-18 05:27:00,
2013-04-18 01:32:00,67.3,62.3,30.70,North,0,0.0,0.0,84,0.00,,,0.00,WUHU216HW,2013-04-18 05:32:00,
2013-04-18 01:37:00,67.3,62.3,30.70,North,0,0.0,0.0,84,0.00,,,0.00,WUHU216HW,2013-04-18 05:37:00,
2013-04-18 01:42:00,67.3,62.3,30.69,North,0,0.0,0.0,84,0.00,,,0.00,WUHU216HW,2013-04-18 05:42:00,
2013-04-18 01:47:00,67.3,62.3,30.69,North,0,0.0,0.0,84,0.00,,,0.00,WUHU216HW,2013-04-18 05:47:00,
2013-04-18 01:52:00,67.1,62.1,30.69,North,0,0.0,0.0,84,0.00,,,0.00,WUHU216HW,2013-04-18 05:52:00,
2013-04-18 01:57:00,67.0,62.3,30.69,North,0,0.0,0.0,85,0.00,,,0.00,WUHU216HW,2013-04-18 05:57:00,
2013-04-18 02:02:00,67.0,62.3,30.68,North,0,0.0,0.0,85,0.00,,,0.00,WUHU216HW,2013-04-18 06:02:00,
2013-04-18 02:07:00,67.0,62.3,30.68,North,0,0.0,0.0,85,0.00,,,0.00,WUHU216HW,2013-04-18 06:07:00,
2013-04-18 02:12:00,67.0,62.3,30.68,North,0,0.0,0.0,85,0.00,,,0.00,WUHU216HW,2013-04-18 06:12:00,
2013-04-18 02:17:00,66.8,62.1,30.67,North,0,0.0,0.0,85,0.00,,,0.00,WUHU216HW,2013-04-18 06:17:00,
2013-04-18 02:22:00,66.8,62.1,30.67,North,0,0.0,0.0,85,0.00,,,0.00,WUHU216HW,2013-04-18 06:22:00,
2013-04-18 02:27:00,66.8,62.1,30.67,North,0,0.0,0.0,85,0.00,,,0.00,WUHU216HW,2013-04-18 06:27:00,
2013-04-18 02:32:00,66.8,62.1,30.67,North,0,0.0,0.0,85,0.00,,,0.00,WUHU216HW,2013-04-18 06:32:00,
2013-04-18 02:37:00,66.8,62.1,30.66,North,0,0.0,0.0,85,0.00,,,0.00,WUHU216HW,2013-04-18 06:37:00,
2013-04-18 02:42:00,66.8,62.1,30.66,North,0,0.0,0.0,85,0.00,,,0.00,WUHU216HW,2013-04-18 06:42:00,
2013-04-18 02:47:00,66.6,61.9,30.66,North,0,0.0,0.0,85,0.00,,,0.00,WUHU216HW,2013-04-18 06:47:00,
2013-04-18 02:52:00,66.6,61.9,30.66,North,0,0.0,0.0,85,0.00,,,0.00,WUHU216HW,2013-04-18 06:52:00,
2013-04-18 02:57:00,66.6,61.9,30.65,North,0,0.0,0.0,85,0.00,,,0.00,WUHU216HW,2013-04-18 06:57:00,
2013-04-18 03:02:00,66.6,61.9,30.65,North,0,0.0,0.0,85,0.00,,,0.00,WUHU216HW,2013-04-18 07:02:00,
2013-04-18 03:07:00,66.6,61.9,30.65,North,0,0.0,0.0,85,0.00,,,0.00,WUHU216HW,2013-04-18 07:07:00,
2013-04-18 03:12:00,66.8,62.1,30.65,North,0,0.0,0.0,85,0.00,,,0.00,WUHU216HW,2013-04-18 07:12:00,
2013-04-18 03:17:00,66.8,62.1,30.65,North,0,0.0,0.0,85,0.00,,,0.00,WUHU216HW,2013-04-18 07:17:00,
2013-04-18 03:22:00,66.8,62.1,30.65,North,0,0.0,0.0,85,0.00,,,0.00,WUHU216HW,2013-04-18 07:22:00,
2013-04-18 03:27:00,66.8,62.1,30.65,North,0,0.0,0.0,85,0.00,,,0.00,WUHU216HW,2013-04-18 07:27:00,
2013-04-18 03:32:00,66.8,62.1,30.65,North,0,0.0,0.0,85,0.00,,,0.00,WUHU216HW,2013-04-18 07:32:00,
2013-04-18 03:37:00,66.6,61.9,30.65,North,0,0.0,0.0,85,0.00,,,0.00,WUHU216HW,2013-04-18 07:37:00,
2013-04-18 03:42:00,66.6,61.9,30.65,North,0,0.0,0.0,85,0.00,,,0.00,WUHU216HW,2013-04-18 07:42:00,
2013-04-18 03:47:00,66.6,61.9,30.65,North,0,0.0,0.0,85,0.00,,,0.00,WUHU216HW,2013-04-18 07:47:00,
2013-04-18 03:52:00,66.6,61.9,30.65,North,0,0.0,0.0,85,0.00,,,0.00,WUHU216HW,2013-04-18 07:52:00,
2013-04-18 03:57:00,66.6,61.9,30.65,North,0,0.0,0.0,85,0.00,,,0.00,WUHU216HW,2013-04-18 07:57:00,
2013-04-18 04:02:00,66.6,61.9,30.65,North,0,0.0,0.0,85,0.00,,,0.00,WUHU216HW,2013-04-18 08:02:00,
2013-04-18 04:07:00,66.4,61.7,30.65,North,0,0.0,0.0,85,0.00,,,0.00,WUHU216HW,2013-04-18 08:07:00,
2013-04-18 04:12:00,66.4,61.7,30.65,North,0,0.0,0.0,85,0.00,,,0.00,WUHU216HW,2013-04-18 08:12:00,
2013-04-18 04:17:00,66.4,61.7,30.65,North,0,0.0,0.0,85,0.00,,,0.00,WUHU216HW,2013-04-18 08:17:00,
2013-04-18 04:22:00,66.4,61.7,30.65,North,0,0.0,0.0,85,0.00,,,0.00,WUHU216HW,2013-04-18 08:22:00,
2013-04-18 04:27:00,66.2,61.6,30.65,North,0,0.0,0.0,85,0.00,,,0.00,WUHU216HW,2013-04-18 08:27:00,
2013-04-18 04:32:00,66.2,61.6,30.65,North,0,0.0,0.0,85,0.00,,,0.00,WUHU216HW,2013-04-18 08:32:00,
2013-04-18 04:37:00,66.2,61.6,30.65,North,0,0.0,0.0,85,0.00,,,0.00,WUHU216HW,2013-04-18 08:37:00,
2013-04-18 04:42:00,66.2,61.6,30.64,North,0,0.0,0.0,85,0.00,,,0.00,WUHU216HW,2013-04-18 08:42:00,
2013-04-18 04:47:00,66.1,61.4,30.64,North,0,0.0,0.0,85,0.00,,,0.00,WUHU216HW,2013-04-18 08:47:00,
2013-04-18 04:52:00,66.1,61.4,30.64,North,0,0.0,0.0,85,0.00,,,0.00,WUHU216HW,2013-04-18 08:52:00,
2013-04-18 04:57:00,66.1,61.4,30.64,North,0,0.0,0.0,85,0.00,,,0.00,WUHU216HW,2013-04-18 08:57:00,
2013-04-18 05:02:00,65.9,61.2,30.64,North,0,0.0,0.0,85,0.00,,,0.00,WUHU216HW,2013-04-18 09:02:00,
2013-04-18 05:07:00,65.9,61.6,30.63,North,0,0.0,0.0,86,0.00,,,0.00,WUHU216HW,2013-04-18 09:07:00,
2013-04-18 05:12:00,65.9,61.6,30.63,North,0,0.0,0.0,86,0.00,,,0.00,WUHU216HW,2013-04-18 09:12:00,
2013-04-18 05:17:00,65.9,61.6,30.64,North,0,0.0,0.0,86,0.00,,,0.00,WUHU216HW,2013-04-18 09:17:00,
2013-04-18 05:22:00,65.9,61.6,30.63,North,0,0.0,0.0,86,0.00,,,0.00,WUHU216HW,2013-04-18 09:22:00,
2013-04-18 05:27:00,65.9,61.6,30.63,North,0,0.0,0.0,86,0.00,,,0.00,WUHU216HW,2013-04-18 09:27:00,
2013-04-18 05:32:00,65.9,61.6,30.63,North,0,0.0,0.0,86,0.00,,,0.00,WUHU216HW,2013-04-18 09:32:00,
2013-04-18 05:37:00,65.7,61.4,30.63,North,0,0.0,0.0,86,0.00,,,0.00,WUHU216HW,2013-04-18 09:37:00,
2013-04-18 05:42:00,65.7,61.4,30.63,North,0,0.0,0.0,86,0.00,,,0.00,WUHU216HW,2013-04-18 09:42:00,
2013-04-18 05:47:00,65.7,61.4,30.64,North,0,0.0,0.0,86,0.00,,,0.00,WUHU216HW,2013-04-18 09:47:00,
2013-04-18 05:52:00,65.7,61.4,30.64,North,0,0.0,0.0,86,0.00,,,0.00,WUHU216HW,2013-04-18 09:52:00,
2013-04-18 05:57:00,65.9,61.6,30.64,North,0,0.0,0.0,86,0.00,,,0.00,WUHU216HW,2013-04-18 09:57:00,
2013-04-18 06:02:00,65.7,61.4,30.64,North,0,0.0,0.0,86,0.00,,,0.00,WUHU216HW,2013-04-18 10:02:00,
2013-04-18 06:07:00,65.9,61.6,30.64,North,0,0.0,0.0,86,0.00,,,0.00,WUHU216HW,2013-04-18 10:07:00,
2013-04-18 06:12:00,65.9,61.6,30.64,North,0,0.0,0.0,86,0.00,,,0.00,WUHU216HW,2013-04-18 10:12:00,
2013-04-18 06:17:00,65.9,61.6,30.64,North,0,0.0,0.0,86,0.00,,,0.00,WUHU216HW,2013-04-18 10:17:00,
2013-04-18 06:22:00,65.9,61.6,30.64,North,0,0.0,0.0,86,0.00,,,0.00,WUHU216HW,2013-04-18 10:22:00,
2013-04-18 06:27:00,65.9,61.6,30.64,North,0,0.0,0.0,86,0.00,,,0.00,WUHU216HW,2013-04-18 10:27:00,
2013-04-18 06:32:00,65.9,61.6,30.64,North,0,0.0,0.0,86,0.00,,,0.00,WUHU216HW,2013-04-18 10:32:00,
2013-04-18 06:37:00,65.9,61.6,30.64,North,0,0.0,0.0,86,0.00,,,0.00,WUHU216HW,2013-04-18 10:37:00,
2013-04-18 06:42:00,65.9,61.6,30.64,North,0,0.0,0.0,86,0.00,,,0.00,WUHU216HW,2013-04-18 10:42:00,
2013-04-18 06:47:00,65.9,61.6,30.64,North,0,0.0,0.0,86,0.00,,,0.00,WUHU216HW,2013-04-18 10:47:00,
2013-04-18 06:52:00,65.7,61.4,30.65,North,0,0.0,0.0,86,0.00,,,0.00,WUHU216HW,2013-04-18 10:52:00,
2013-04-18 06:57:00,65.7,61.4,30.65,North,0,0.0,0.0,86,0.00,,,0.00,WUHU216HW,2013-04-18 10:57:00,
2013-04-18 07:02:00,65.7,61.4,30.65,North,0,0.0,0.0,86,0.00,,,0.00,WUHU216HW,2013-04-18 11:02:00,
2013-04-18 07:07:00,65.7,61.4,30.65,North,0,0.0,0.0,86,0.00,,,0.00,WUHU216HW,2013-04-18 11:07:00,
2013-04-18 07:12:00,65.9,61.6,30.65,North,0,0.0,0.0,86,0.00,,,0.00,WUHU216HW,2013-04-18 11:12:00,
2013-04-18 07:17:00,65.9,61.6,30.65,North,0,0.0,0.0,86,0.00,,,0.00,WUHU216HW,2013-04-18 11:17:00,
2013-04-18 07:22:00,65.9,61.6,30.66,North,0,0.0,0.0,86,0.00,,,0.00,WUHU216HW,2013-04-18 11:22:00,
2013-04-18 07:27:00,65.9,61.6,30.66,North,0,0.0,0.0,86,0.00,,,0.00,WUHU216HW,2013-04-18 11:27:00,
2013-04-18 07:32:00,65.9,61.6,30.66,North,0,0.0,0.0,86,0.00,,,0.00,WUHU216HW,2013-04-18 11:32:00,
2013-04-18 07:37:00,65.9,61.6,30.65,North,0,0.0,0.0,86,0.00,,,0.00,WUHU216HW,2013-04-18 11:37:00,
2013-04-18 07:42:00,66.1,61.8,30.66,North,0,0.0,0.0,86,0.00,,,0.00,WUHU216HW,2013-04-18 11:42:00,
2013-04-18 07:47:00,66.2,61.9,30.66,North,0,0.0,0.0,86,0.00,,,0.00,WUHU216HW,2013-04-18 11:47:00,
2013-04-18 07:52:00,66.2,61.9,30.66,North,0,0.0,0.0,86,0.00,,,0.00,WUHU216HW,2013-04-18 11:52:00,
2013-04-18 07:57:00,66.6,62.3,30.67,North,0,0.0,0.0,86,0.00,,,0.00,WUHU216HW,2013-04-18 11:57:00,
2013-04-18 08:02:00,66.8,62.5,30.67,North,0,0.0,0.0,86,0.00,,,0.00,WUHU216HW,2013-04-18 12:02:00,
2013-04-18 08:07:00,67.1,62.8,30.67,North,0,0.0,0.0,86,0.00,,,0.00,WUHU216HW,2013-04-18 12:07:00,
2013-04-18 08:12:00,67.3,63.0,30.67,North,0,0.0,0.0,86,0.00,,,0.00,WUHU216HW,2013-04-18 12:12:00,
2013-04-18 08:17:00,67.7,63.4,30.67,North,0,0.0,0.0,86,0.00,,,0.00,WUHU216HW,2013-04-18 12:17:00,
2013-04-18 08:22:00,68.0,63.7,30.67,North,0,0.0,0.0,86,0.00,,,0.00,WUHU216HW,2013-04-18 12:22:00,
2013-04-18 08:27:00,68.4,64.0,30.67,North,0,0.0,0.0,86,0.00,,,0.00,WUHU216HW,2013-04-18 12:27:00,
2013-04-18 08:32:00,68.6,64.2,30.67,North,0,0.0,0.0,86,0.00,,,0.00,WUHU216HW,2013-04-18 12:32:00,
2013-04-18 08:37:00,68.9,64.5,30.67,North,0,0.0,0.0,86,0.00,,,0.00,WUHU216HW,2013-04-18 12:37:00,
2013-04-18 08:42:00,69.5,65.1,30.68,North,0,0.0,0.0,86,0.00,,,0.00,WUHU216HW,2013-04-18 12:42:00,
2013-04-18 08:47:00,69.7,65.3,30.68,North,0,0.0,0.0,86,0.00,,,0.00,WUHU216HW,2013-04-18 12:47:00,
2013-04-18 08:52:00,70.0,65.6,30.68,North,0,0.0,0.0,86,0.00,,,0.00,WUHU216HW,2013-04-18 12:52:00,
2013-04-18 08:57:00,70.7,66.0,30.68,North,0,0.0,0.0,85,0.00,,,0.00,WUHU216HW,2013-04-18 12:57:00,
2013-04-18 09:02:00,71.1,66.3,30.67,North,0,0.0,0.0,85,0.00,,,0.00,WUHU216HW,2013-04-18 13:02:00,
2013-04-18 09:07:00,71.5,66.7,30.68,North,0,0.0,0.0,85,0.00,,,0.00,WUHU216HW,2013-04-18 13:07:00,
2013-04-18 09:12:00,71.8,67.1,30.68,North,0,0.0,0.0,85,0.00,,,0.00,WUHU216HW,2013-04-18 13:12:00,
2013-04-18 09:17:00,72.4,67.2,30.68,North,0,0.0,0.0,84,0.00,,,0.00,WUHU216HW,2013-04-18 13:17:00,
2013-04-18 09:22:00,74.3,69.6,30.67,North,0,0.0,0.0,85,0.00,,,0.00,WUHU216HW,2013-04-18 13:22:00,
2013-04-18 09:27:00,76.0,70.8,30.68,North,0,0.0,0.0,84,0.00,,,0.00,WUHU216HW,2013-04-18 13:27:00,
2013-04-18 09:32:00,76.5,70.9,30.68,North,0,0.0,0.0,83,0.00,,,0.00,WUHU216HW,2013-04-18 13:32:00,
2013-04-18 09:37:00,76.7,71.1,30.68,North,0,0.0,0.0,83,0.00,,,0.00,WUHU216HW,2013-04-18 13:37:00,
2013-04-18 09:42:00,77.0,70.7,30.68,North,0,0.0,0.0,81,0.00,,,0.00,WUHU216HW,2013-04-18 13:42:00,
2013-04-18 09:47:00,77.0,70.7,30.68,North,0,0.0,0.0,81,0.00,,,0.00,WUHU216HW,2013-04-18 13:47:00,
2013-04-18 09:52:00,76.7,70.4,30.68,North,0,0.0,0.0,81,0.00,,,0.00,WUHU216HW,2013-04-18 13:52:00,
2013-04-18 09:57:00,76.9,70.6,30.68,North,0,0.0,0.0,81,0.00,,,0.00,WUHU216HW,2013-04-18 13:57:00,
2013-04-18 10:02:00,77.9,71.6,30.68,North,0,0.0,0.0,81,0.00,,,0.00,WUHU216HW,2013-04-18 14:02:00,
2013-04-18 10:07:00,78.7,70.8,30.68,North,0,0.0,0.0,77,0.00,,,0.00,WUHU216HW,2013-04-18 14:07:00,
2013-04-18 10:12:00,80.3,70.8,30.68,North,0,0.0,0.0,73,0.00,,,0.00,WUHU216HW,2013-04-18 14:12:00,
2013-04-18 10:17:00,80.5,71.5,30.68,North,0,0.0,0.0,74,0.00,,,0.00,WUHU216HW,2013-04-18 14:17:00,
2013-04-18 10:22:00,79.9,70.5,30.68,North,0,0.0,0.0,73,0.00,,,0.00,WUHU216HW,2013-04-18 14:22:00,
2013-04-18 10:27:00,79.2,69.8,30.68,North,0,0.0,0.0,73,0.00,,,0.00,WUHU216HW,2013-04-18 14:27:00,
2013-04-18 10:32:00,78.5,69.8,30.68,North,0,0.0,0.0,75,0.00,,,0.00,WUHU216HW,2013-04-18 14:32:00,
2013-04-18 10:37:00,77.9,68.9,30.68,North,0,0.0,0.0,74,0.00,,,0.00,WUHU216HW,2013-04-18 14:37:00,
2013-04-18 10:42:00,77.4,69.2,30.67,North,0,0.0,0.0,76,0.00,,,0.00,WUHU216HW,2013-04-18 14:42:00,
2013-04-18 10:47:00,76.7,69.3,30.68,North,0,0.0,0.0,78,0.00,,,0.00,WUHU216HW,2013-04-18 14:47:00,
2013-04-18 10:52:00,76.1,69.6,30.68,North,0,0.0,0.0,80,0.00,,,0.00,WUHU216HW,2013-04-18 14:52:00,
2013-04-18 10:57:00,76.3,69.8,30.68,North,0,0.0,0.0,80,0.00,,,0.00,WUHU216HW,2013-04-18 14:57:00,
2013-04-18 11:02:00,76.3,69.8,30.67,North,0,0.0,0.0,80,0.00,,,0.00,WUHU216HW,2013-04-18 15:02:00,
2013-04-18 11:07:00,76.1,69.9,30.68,North,0,0.0,0.0,81,0.00,,,0.00,WUHU216HW,2013-04-18 15:07:00,
2013-04-18 11:12:00,77.0,70.7,30.67,North,0,0.0,0.0,81,0.00,,,0.00,WUHU216HW,2013-04-18 15:12:00,
2013-04-18 11:17:00,77.8,71.1,30.68,North,0,0.0,0.0,80,0.00,,,0.00,WUHU216HW,2013-04-18 15:17:00,
2013-04-18 11:22:00,78.3,71.3,30.68,North,0,0.0,0.0,79,0.00,,,0.00,WUHU216HW,2013-04-18 15:22:00,
2013-04-18 11:27:00,79.7,71.5,30.67,North,0,0.0,0.0,76,0.00,,,0.00,WUHU216HW,2013-04-18 15:27:00,
2013-04-18 11:32:00,79.6,70.9,30.67,North,0,0.0,0.0,75,0.00,,,0.00,WUHU216HW,2013-04-18 15:32:00,
2013-04-18 11:37:00,80.3,71.3,30.67,North,0,0.0,0.0,74,0.00,,,0.00,WUHU216HW,2013-04-18 15:37:00,
2013-04-18 11:42:00,81.2,70.9,30.67,North,0,0.0,0.0,71,0.00,,,0.00,WUHU216HW,2013-04-18 15:42:00,
2013-04-18 11:47:00,81.4,71.5,30.67,North,0,0.0,0.0,72,0.00,,,0.00,WUHU216HW,2013-04-18 15:47:00,
2013-04-18 11:52:00,81.5,70.8,30.66,North,0,0.0,0.0,70,0.00,,,0.00,WUHU216HW,2013-04-18 15:52:00,
2013-04-18 11:57:00,83.5,72.7,30.67,North,0,0.0,0.0,70,0.00,,,0.00,WUHU216HW,2013-04-18 15:57:00,
2013-04-18 12:02:00,84.6,74.2,30.67,North,0,0.0,0.0,71,0.00,,,0.00,WUHU216HW,2013-04-18 16:02:00,
2013-04-18 12:07:00,84.6,74.2,30.67,North,0,0.0,0.0,71,0.00,,,0.00,WUHU216HW,2013-04-18 16:07:00,
2013-04-18 12:12:00,86.2,73.1,30.66,North,0,0.0,0.0,65,0.00,,,0.00,WUHU216HW,2013-04-18 16:12:00,
2013-04-18 12:17:00,86.2,73.1,30.66,North,0,0.0,0.0,65,0.00,,,0.00,WUHU216HW,2013-04-18 16:17:00,
2013-04-18 12:22:00,86.2,73.1,30.65,North,0,0.0,0.0,65,0.00,,,0.00,WUHU216HW,2013-04-18 16:22:00,
2013-04-18 12:27:00,86.2,73.1,30.65,North,0,0.0,0.0,65,0.00,,,0.00,WUHU216HW,2013-04-18 16:27:00,
2013-04-18 12:32:00,86.2,73.1,30.65,North,0,0.0,0.0,65,0.00,,,0.00,WUHU216HW,2013-04-18 16:32:00,
2013-04-18 13:32:00,85.9,71.4,30.63,North,0,0.0,0.0,62,0.00,,,0.00,WUHU216HW,2013-04-18 17:32:00,
2013-04-18 13:37:00,85.5,69.6,30.63,North,0,0.0,0.0,59,0.00,,,0.00,WUHU216HW,2013-04-18 17:37:00,
2013-04-18 13:42:00,84.6,70.7,30.63,North,0,0.0,0.0,63,0.00,,,0.00,WUHU216HW,2013-04-18 17:42:00,
2013-04-18 13:47:00,84.8,71.3,30.63,North,0,0.0,0.0,64,0.00,,,0.00,WUHU216HW,2013-04-18 17:47:00,
2013-04-18 13:52:00,84.8,69.8,30.63,North,0,0.0,0.0,61,0.00,,,0.00,WUHU216HW,2013-04-18 17:52:00,
2013-04-18 13:57:00,85.0,70.5,30.64,North,0,0.0,0.0,62,0.00,,,0.00,WUHU216HW,2013-04-18 17:57:00,
2013-04-18 14:02:00,85.0,70.0,30.63,North,0,0.0,0.0,61,0.00,,,0.00,WUHU216HW,2013-04-18 18:02:00,
2013-04-18 14:07:00,85.0,70.5,30.63,North,0,0.0,0.0,62,0.00,,,0.00,WUHU216HW,2013-04-18 18:07:00,
2013-04-18 14:12:00,85.3,70.4,30.63,North,0,0.0,0.0,61,0.00,,,0.00,WUHU216HW,2013-04-18 18:12:00,
2013-04-18 14:17:00,85.3,69.4,30.63,North,0,0.0,0.0,59,0.00,,,0.00,WUHU216HW,2013-04-18 18:17:00,
2013-04-18 14:22:00,84.4,68.0,30.63,North,0,0.0,0.0,58,0.00,,,0.00,WUHU216HW,2013-04-18 18:22:00,
2013-04-18 14:27:00,84.2,68.4,30.63,North,0,0.0,0.0,59,0.00,,,0.00,WUHU216HW,2013-04-18 18:27:00,
2013-04-18 14:32:00,84.1,69.2,30.63,North,0,0.0,0.0,61,0.00,,,0.00,WUHU216HW,2013-04-18 18:32:00,
2013-04-18 14:37:00,84.6,69.8,30.63,North,0,0.0,0.0,61,0.00,,,0.00,WUHU216HW,2013-04-18 18:37:00,
2013-04-18 14:42:00,85.1,70.2,30.62,North,0,0.0,0.0,61,0.00,,,0.00,WUHU216HW,2013-04-18 18:42:00,
2013-04-18 14:47:00,85.3,69.9,30.62,North,0,0.0,0.0,60,0.00,,,0.00,WUHU216HW,2013-04-18 18:47:00,
2013-04-18 14:52:00,85.0,69.0,30.62,North,0,0.0,0.0,59,0.00,,,0.00,WUHU216HW,2013-04-18 18:52:00,
2013-04-18 14:57:00,85.1,70.2,30.62,North,0,0.0,0.0,61,0.00,,,0.00,WUHU216HW,2013-04-18 18:57:00,
2013-04-18 15:02:00,86.4,69.3,30.62,North,0,0.0,0.0,57,0.00,,,0.00,WUHU216HW,2013-04-18 19:02:00,
2013-04-18 15:07:00,86.4,70.4,30.62,North,0,0.0,0.0,59,0.00,,,0.00,WUHU216HW,2013-04-18 19:07:00,
2013-04-18 15:12:00,86.4,70.4,30.62,North,0,0.0,0.0,59,0.00,,,0.00,WUHU216HW,2013-04-18 19:12:00,
2013-04-18 15:17:00,86.4,70.4,30.62,North,0,0.0,0.0,59,0.00,,,0.00,WUHU216HW,2013-04-18 19:17:00,
2013-04-18 15:22:00,85.3,68.9,30.62,North,0,0.0,0.0,58,0.00,,,0.00,WUHU216HW,2013-04-18 19:22:00,
2013-04-18 15:27:00,85.0,68.6,30.62,North,0,0.0,0.0,58,0.00,,,0.00,WUHU216HW,2013-04-18 19:27:00,
2013-04-18 15:32:00,85.1,68.7,30.62,North,0,0.0,0.0,58,0.00,,,0.00,WUHU216HW,2013-04-18 19:32:00,
2013-04-18 15:37:00,84.6,67.7,30.62,North,0,0.0,0.0,57,0.00,,,0.00,WUHU216HW,2013-04-18 19:37:00,
2013-04-18 15:42:00,85.3,69.4,30.62,North,0,0.0,0.0,59,0.00,,,0.00,WUHU216HW,2013-04-18 19:42:00,
2013-04-18 15:47:00,86.2,69.2,30.62,North,0,0.0,0.0,57,0.00,,,0.00,WUHU216HW,2013-04-18 19:47:00,
2013-04-18 15:52:00,86.9,69.3,30.62,North,0,0.0,0.0,56,0.00,,,0.00,WUHU216HW,2013-04-18 19:52:00,
2013-04-18 15:57:00,86.6,68.0,30.62,North,0,0.0,0.0,54,0.00,,,0.00,WUHU216HW,2013-04-18 19:57:00,
2013-04-18 16:02:00,86.2,69.2,30.61,North,0,0.0,0.0,57,0.00,,,0.00,WUHU216HW,2013-04-18 20:02:00,
2013-04-18 16:07:00,86.2,68.7,30.61,North,0,0.0,0.0,56,0.00,,,0.00,WUHU216HW,2013-04-18 20:07:00,
2013-04-18 16:12:00,86.2,68.1,30.61,North,0,0.0,0.0,55,0.00,,,0.00,WUHU216HW,2013-04-18 20:12:00,
2013-04-18 16:17:00,86.2,68.1,30.61,North,0,0.0,0.0,55,0.00,,,0.00,WUHU216HW,2013-04-18 20:17:00,
2013-04-18 16:22:00,86.2,68.1,30.61,North,0,0.0,0.0,55,0.00,,,0.00,WUHU216HW,2013-04-18 20:22:00,
2013-04-18 16:27:00,86.2,68.1,30.61,North,0,0.0,0.0,55,0.00,,,0.00,WUHU216HW,2013-04-18 20:27:00,
2013-04-18 16:32:00,86.2,68.1,30.61,North,0,0.0,0.0,55,0.00,,,0.00,WUHU216HW,2013-04-18 20:32:00,
2013-04-18 17:31:00,84.4,69.1,30.62,North,0,0.0,0.0,60,0.00,,,0.00,WUHU216HW,2013-04-18 21:31:00,
2013-04-18 17:36:00,84.6,68.2,30.62,North,0,0.0,0.0,58,0.00,,,0.00,WUHU216HW,2013-04-18 21:36:00,
2013-04-18 17:41:00,84.6,68.2,30.62,North,0,0.0,0.0,58,0.00,,,0.00,WUHU216HW,2013-04-18 21:41:00,
2013-04-18 17:46:00,84.6,68.2,30.62,North,0,0.0,0.0,58,0.00,,,0.00,WUHU216HW,2013-04-18 21:46:00,
2013-04-18 17:51:00,84.6,68.2,30.61,North,0,0.0,0.0,58,0.00,,,0.00,WUHU216HW,2013-04-18 21:51:00,
2013-04-18 17:56:00,84.1,69.2,30.61,North,0,0.0,0.0,61,0.00,,,0.00,WUHU216HW,2013-04-18 21:56:00,
2013-04-18 18:01:00,84.2,69.4,30.61,North,0,0.0,0.0,61,0.00,,,0.00,WUHU216HW,2013-04-18 22:01:00,
2013-04-18 18:06:00,82.6,67.3,30.61,North,0,0.0,0.0,60,0.00,,,0.00,WUHU216HW,2013-04-18 22:06:00,
2013-04-18 18:11:00,81.0,66.8,30.61,North,0,0.0,0.0,62,0.00,,,0.00,WUHU216HW,2013-04-18 22:11:00,
2013-04-18 18:16:00,79.9,66.6,30.61,North,0,0.0,0.0,64,0.00,,,0.00,WUHU216HW,2013-04-18 22:16:00,
2013-04-18 18:21:00,79.4,66.6,30.61,North,0,0.0,0.0,65,0.00,,,0.00,WUHU216HW,2013-04-18 22:21:00,
2013-04-18 18:26:00,79.0,67.2,30.61,North,0,0.0,0.0,67,0.00,,,0.00,WUHU216HW,2013-04-18 22:26:00,
2013-04-18 18:31:00,79.0,67.5,30.62,North,0,0.0,0.0,68,0.00,,,0.00,WUHU216HW,2013-04-18 22:31:00,
2013-04-18 18:36:00,78.7,67.6,30.62,North,0,0.0,0.0,69,0.00,,,0.00,WUHU216HW,2013-04-18 22:36:00,
2013-04-18 18:41:00,78.8,67.8,30.62,North,0,0.0,0.0,69,0.00,,,0.00,WUHU216HW,2013-04-18 22:41:00,
2013-04-18 18:46:00,78.7,67.6,30.62,North,0,0.0,0.0,69,0.00,,,0.00,WUHU216HW,2013-04-18 22:46:00,
2013-04-18 18:51:00,78.5,67.9,30.62,North,0,0.0,0.0,70,0.00,,,0.00,WUHU216HW,2013-04-18 22:51:00,
2013-04-18 18:56:00,77.9,67.8,30.62,North,0,0.0,0.0,71,0.00,,,0.00,WUHU216HW,2013-04-18 22:56:00,
2013-04-18 19:01:00,77.6,67.9,30.62,North,0,0.0,0.0,72,0.00,,,0.00,WUHU216HW,2013-04-18 23:01:00,
2013-04-18 19:06:00,77.4,67.7,30.62,North,0,0.0,0.0,72,0.00,,,0.00,WUHU216HW,2013-04-18 23:06:00,
2013-04-18 19:11:00,77.4,68.0,30.62,North,0,0.0,0.0,73,0.00,,,0.00,WUHU216HW,2013-04-18 23:11:00,
2013-04-18 19:16:00,77.2,67.9,30.62,North,0,0.0,0.0,73,0.00,,,0.00,WUHU216HW,2013-04-18 23:16:00,
2013-04-18 19:21:00,76.9,67.6,30.62,North,0,0.0,0.0,73,0.00,,,0.00,WUHU216HW,2013-04-18 23:21:00,
2013-04-18 19:26:00,76.7,67.8,30.61,North,0,0.0,0.0,74,0.00,,,0.00,WUHU216HW,2013-04-18 23:26:00,
2013-04-18 19:31:00,76.3,67.8,30.61,North,0,0.0,0.0,75,0.00,,,0.00,WUHU216HW,2013-04-18 23:31:00,
2013-04-18 19:36:00,76.0,67.5,30.60,North,0,0.0,0.0,75,0.00,,,0.00,WUHU216HW,2013-04-18 23:36:00,
2013-04-18 19:41:00,76.0,67.9,30.61,North,0,0.0,0.0,76,0.00,,,0.00,WUHU216HW,2013-04-18 23:41:00,
2013-04-18 19:46:00,75.8,67.7,30.61,North,0,0.0,0.0,76,0.00,,,0.00,WUHU216HW,2013-04-18 23:46:00,
2013-04-18 19:51:00,75.6,67.5,30.60,North,0,0.0,0.0,76,0.00,,,0.00,WUHU216HW,2013-04-18 23:51:00,
2013-04-18 19:56:00,75.4,67.3,30.60,North,0,0.0,0.0,76,0.00,,,0.00,WUHU216HW,2013-04-18 23:56:00,
2013-04-18 20:01:00,75.2,66.8,30.60,North,0,0.0,0.0,75,0.00,,,0.00,WUHU216HW,2013-04-19 00:01:00,
2013-04-18 20:06:00,75.2,67.1,30.59,North,0,0.0,0.0,76,0.00,,,0.00,WUHU216HW,2013-04-19 00:06:00,
2013-04-18 20:11:00,74.9,66.9,30.59,North,0,0.0,0.0,76,0.00,,,0.00,WUHU216HW,2013-04-19 00:11:00,
2013-04-18 20:16:00,74.7,67.1,30.59,North,0,0.0,0.0,77,0.00,,,0.00,WUHU216HW,2013-04-19 00:16:00,
2013-04-18 20:21:00,74.5,66.9,30.58,North,0,0.0,0.0,77,0.00,,,0.00,WUHU216HW,2013-04-19 00:21:00,
2013-04-18 20:26:00,74.5,66.9,30.57,North,0,0.0,0.0,77,0.00,,,0.00,WUHU216HW,2013-04-19 00:26:00,
2013-04-18 20:31:00,74.3,66.7,30.58,North,0,0.0,0.0,77,0.00,,,0.00,WUHU216HW,2013-04-19 00:31:00,
2013-04-18 20:36:00,74.3,66.7,30.58,North,0,0.0,0.0,77,0.00,,,0.00,WUHU216HW,2013-04-19 00:36:00,
2013-04-18 20:41:00,74.2,66.5,30.57,North,0,0.0,0.0,77,0.00,,,0.00,WUHU216HW,2013-04-19 00:41:00,
2013-04-18 20:46:00,74.2,66.5,30.57,North,0,0.0,0.0,77,0.00,,,0.00,WUHU216HW,2013-04-19 00:46:00,
2013-04-18 20:51:00,74.0,66.3,30.56,North,0,0.0,0.0,77,0.00,,,0.00,WUHU216HW,2013-04-19 00:51:00,
2013-04-18 20:56:00,74.0,66.7,30.56,North,0,0.0,0.0,78,0.00,,,0.00,WUHU216HW,2013-04-19 00:56:00,
2013-04-18 21:01:00,73.8,66.6,30.56,North,0,0.0,0.0,78,0.00,,,0.00,WUHU216HW,2013-04-19 01:01:00,
2013-04-18 21:06:00,73.6,66.4,30.55,North,0,0.0,0.0,78,0.00,,,0.00,WUHU216HW,2013-04-19 01:06:00,
2013-04-18 21:11:00,73.6,66.4,30.55,North,0,0.0,0.0,78,0.00,,,0.00,WUHU216HW,2013-04-19 01:11:00,
2013-04-18 21:16:00,73.6,66.8,30.55,North,0,0.0,0.0,79,0.00,,,0.00,WUHU216HW,2013-04-19 01:16:00,
2013-04-18 21:21:00,73.4,66.6,30.55,North,0,0.0,0.0,79,0.00,,,0.00,WUHU216HW,2013-04-19 01:21:00,
2013-04-18 22:00:00,73.3,67.2,30.50,North,0,0.0,0.0,81,0.00,,,0.00,WUHU216HW,2013-04-19 02:00:00,
2013-04-18 22:05:00,73.3,67.2,30.49,North,0,0.0,0.0,81,0.00,,,0.00,WUHU216HW,2013-04-19 02:05:00,
2013-04-18 22:10:00,73.1,67.0,30.46,North,0,0.0,0.0,81,0.00,,,0.00,WUHU216HW,2013-04-19 02:10:00,
2013-04-18 22:15:00,73.1,67.0,30.45,North,0,0.0,0.0,81,0.00,,,0.00,WUHU216HW,2013-04-19 02:15:00,
2013-04-18 22:20:00,73.1,67.0,30.44,North,0,0.0,0.0,81,0.00,,,0.00,WUHU216HW,2013-04-19 02:20:00,
2013-04-18 22:25:00,72.9,66.8,30.44,North,0,0.0,0.0,81,0.00,,,0.00,WUHU216HW,2013-04-19 02:25:00,
2013-04-18 22:30:00,72.7,66.6,30.42,North,0,0.0,0.0,81,0.00,,,0.00,WUHU216HW,2013-04-19 02:30:00,
2013-04-18 22:35:00,72.7,66.6,30.39,North,0,0.0,0.0,81,0.00,,,0.00,WUHU216HW,2013-04-19 02:35:00,
2013-04-18 22:40:00,72.7,66.6,30.39,North,0,0.0,0.0,81,0.00,,,0.00,WUHU216HW,2013-04-19 02:40:00,
2013-04-18 22:45:00,72.7,66.6,30.39,North,0,0.0,0.0,81,0.00,,,0.00,WUHU216HW,2013-04-19 02:45:00,
2013-04-18 22:50:00,72.7,66.2,30.38,North,0,0.0,0.0,80,0.00,,,0.00,WUHU216HW,2013-04-19 02:50:00,
2013-04-18 22:55:00,72.5,66.4,30.37,North,0,0.0,0.0,81,0.00,,,0.00,WUHU216HW,2013-04-19 02:55:00,
2013-04-18 23:00:00,72.5,66.4,30.37,North,0,0.0,0.0,81,0.00,,,0.00,WUHU216HW,2013-04-19 03:00:00,
2013-04-18 23:05:00,72.5,66.8,30.37,North,0,0.0,0.0,82,0.00,,,0.00,WUHU216HW,2013-04-19 03:05:00,
2013-04-18 23:10:00,72.5,66.8,30.36,North,0,0.0,0.0,82,0.00,,,0.00,WUHU216HW,2013-04-19 03:10:00,
2013-04-18 23:15:00,72.5,66.8,30.36,North,0,0.0,0.0,82,0.00,,,0.00,WUHU216HW,2013-04-19 03:15:00,
2013-04-18 23:20:00,72.5,66.8,30.36,North,0,0.0,0.0,82,0.00,,,0.00,WUHU216HW,2013-04-19 03:20:00,
2013-04-18 23:25:00,72.5,66.8,30.34,North,0,0.0,0.0,82,0.00,,,0.00,WUHU216HW,2013-04-19 03:25:00,
2013-04-18 23:30:00,72.5,66.8,30.32,North,0,0.0,0.0,82,0.00,,,0.00,WUHU216HW,2013-04-19 03:30:00,
2013-04-18 23:35:00,72.5,66.8,30.31,North,0,0.0,0.0,82,0.00,,,0.00,WUHU216HW,2013-04-19 03:35:00,
2013-04-18 23:40:00,72.4,66.6,30.30,North,0,0.0,0.0,82,0.00,,,0.00,WUHU216HW,2013-04-19 03:40:00,
2013-04-18 23:45:00,72.4,66.6,30.30,North,0,0.0,0.0,82,0.00,,,0.00,WUHU216HW,2013-04-19 03:45:00,
2013-04-18 23:50:00,72.4,66.9,30.30,North,0,0.0,0.0,83,0.00,,,0.00,WUHU216HW,2013-04-19 03:50:00,
2013-04-18 23:55:00,72.4,66.9,30.29,North,0,0.0,0.0,83,0.00,,,0.00,WUHU216HW,2013-04-19 03:55:00,